Regional Weather Roundup
Issued by NWS

Home | Current Version | Previous Version | Graphics & Text | Print | Product List | Glossary Off
Versions: 1 2 3 4 5 6 7 8 9 10 11 12 13 14 15 16 17 18 19 20 21 22 23 24 25 26 27 28 29 30 31 32 33 34 35 36 37 38 39 40 41 42 43 44 45 46 47 48 49 50

790
ASUS45 KBOU 221310
RWRCO

WEATHER ROUNDUP FOR COLORADO
NATIONAL WEATHER SERVICE PUEBLO CO
700 AM MDT SUN APR 22 2018

NOTE: "FAIR" INDICATES FEW OR NO CLOUDS BELOW 12000 FEET WITH NO
SIGNIFICANT WEATHER AND/OR OBSTRUCTIONS TO VISIBILITY.

COZ001>005-013-030-031-221400-
...NORTHWEST COLORADO...

CITY           SKY/WX    TMP DP  RH WIND       PRES   REMARKS
CRAIG          CLEAR     29  27  92 SW5       30.25S WCI  24
HAYDEN         CLEAR     34  30  85 E9        30.27R WCI  27
MEEKER         CLEAR     34  29  82 E7        30.26R WCI  28
RABBIT EARS PA NOT AVBL
STEAMBOAT SPGS FAIR      30  30 100 CALM      30.27R
WALDEN         FAIR      23  19  86 SE6       30.29R WCI  16
$$

COZ006>008-011-221400-
...WEST CENTRAL VALLEYS...

CITY           SKY/WX    TMP DP  RH WIND       PRES   REMARKS
GRAND JUNCTION CLEAR     41  34  76 SE10      30.21R
MONTROSE       CLEAR     34  29  82 SE7       30.27R WCI  28
EAGLE          CLEAR     29  29 100 CALM      30.33R
RIFLE          CLEAR     34  32  92 CALM      30.27R
DELTA          NOT AVBL
NUCLA          FAIR      36  28  75 E7        30.27R
$$

COZ017>023-064>068-221400-
...SOUTHWEST COLORADO...

CITY           SKY/WX    TMP DP  RH WIND       PRES   REMARKS
DURANGO        PTCLDY    29  14  53 N7        30.21R WCI  22
CORTEZ         CLEAR     31  20  63 E5        30.20R WCI  26
PAGOSA SPRINGS FAIR      29  19  65 CALM      30.24S
TELLURIDE      CLEAR     32  25  76 CALM      30.34R
WOLF CREEK PAS CLEAR     28  19  69 NW7       30.41S WCI  21
$$

COZ009-010-012-014-032>034-037-058>063-221400-
...CENTRAL COLORADO...

CITY           SKY/WX    TMP DP  RH WIND       PRES   REMARKS
ASPEN          CLEAR     28  25  88 S6        30.29R WCI  22
BUENA VISTA    FAIR      31  26  81 SE5       30.26R WCI  26
COPPER MTN     NOT AVBL
BERTHOUD PASS  CLOUDY    23  12  63 MISG      30.35R
COTTONWOOD PAS CLEAR     41  27  56 W7        30.29R
GUNNISON       CLEAR     25  22  88 N3        30.33R
KREMMLING      CLEAR     32  30  93 CALM      30.32R
LEADVILLE      CLEAR     22  21  96 NE8       30.31R WCI  12
MONARCH PASS     N/A     25  21  86 W9        30.45S WCI  15
SALIDA         FAIR      31  26  80 W3        30.33R
SUNLIGHT       CLEAR     28  27  93 N6        30.39R WCI  22
WILKERSON PASS CLEAR     30  21  69 N10G17    30.34R WCI  21
$$

COZ069>075-221400-
...SAN LUIS VALLEY/SANGRE DE CRISTO MOUNTAINS...

CITY           SKY/WX    TMP DP  RH WIND       PRES   REMARKS
ALAMOSA        PTCLDY    24  19  81 CALM      30.26R
DEL NORTE      FAIR      33  20  59 CALM      30.28R
LA VETA PASS   CLEAR     32  21  64 SW14      30.41R WCI  22
SAGUACHE       NOT AVBL
$$

COZ035-036-038>040-221400-
...NORTHERN COLORADO FRONT RANGE...

CITY           SKY/WX    TMP DP  RH WIND       PRES   REMARKS
DENVER INTL AP PTCLDY    34  31  88 CALM      30.16R
DMNS CITY PARK NOT AVBL
AURORA         PTCLDY    32  32  99 SW6       30.16R WCI  27
FRONT RANGE AP FAIR      35  32  90 S5        30.17R WCI  31
ERIE MUNI ARPT FAIR      29  29  99 CALM      30.22R FOG
BOULDER MUN AP FAIR      32  32 100 CALM      30.16R
CENTENNIAL     PTCLDY    32  30  92 SE5       30.16R WCI  27
BROOMFIELD     CLEAR     34  32  93 CALM      30.16R
LOVELAND       FOG       30  29  96 N3        30.17R VSB<1/4
LONGMONT       SNOW      31  29  94 CALM      30.19R VSB<1/4
$$

COZ041-046-047-076>085-087-088-221400-
...PIKES PEAK/PALMER DIVIDE AND SOUTHERN FOOTHILLS...

CITY           SKY/WX    TMP DP  RH WIND       PRES   REMARKS
COLO. SPRINGS  FOG       32  32 100 CALM      30.19R VSB 1/16
A. F. ACADEMY  CLEAR     30  30  99 N5        30.18R WCI  25
SCHRIEVER AFB  NOT AVBL
CHEYENNE MTN   NOT AVBL
ELLICOTT       CLOUDY   N/A N/A N/A W7        30.18R
FALCON         FAIR      31  30  94 CALM      30.20R
FORT CARSON    FOG       30  28  93 N5        30.18R VSB 1/8 WCI  25
LIMON          FOG       33  33 100 SE5       30.18R VSB 1/2 WCI  29
MONUMENT HILL  CLEAR     32  28  86 W7        30.19S WCI  26
CANON CITY     FOG       36  36 100 CALM      30.19R VSB 1/2
WALSENBURG     FAIR      32  32 100 SW3       30.19S
TRINIDAD       CLEAR     33  30  88 W12       30.19S WCI  24
$$

COZ042>045-048>051-090-091-221400-
...NORTHEAST COLORADO...

CITY           SKY/WX    TMP DP  RH WIND       PRES   REMARKS
GREELEY ARPT   CLEAR     30  30 100 NW5       30.18R FOG     WCI  25
AKRON          PTCLDY    30  30 100 SE6       30.19R WCI  24
BURLINGTON     MOSUNNY   35  34  96 CALM      30.21R
WRAY           FAIR      36  36 100 SW5       30.21S FOG
YUMA           NOT AVBL
STERLING       NOT AVBL
HOLYOKE        FOG       37  36  93 CALM      30.21S VSB<1/4
FORT MORGAN    FAIR      32  31  95 CALM      30.19R
$$

COZ086-089-092>099-221400-
...SOUTHEAST COLORADO...

CITY           SKY/WX    TMP DP  RH WIND       PRES   REMARKS
PUEBLO         CLOUDY    39  38  96 SW3       30.19R FOG
LA JUNTA       CLOUDY    40  38  93 E7        30.21R FOG
LAMAR          CLOUDY    37  35  92 E3        30.21R FOG
SPRINGFIELD      N/A     38  37  97 CALM      30.19F
$$





USA.gov is the U.S. government's official web portal to all federal, state and local government web resources and services.